Regional Weather Roundup
Issued by NWS

Home | Current Version | Previous Version | Graphics & Text | Print | Product List | Glossary On
Versions: 1 2 3 4 5 6 7 8 9 10 11 12 13 14 15 16 17 18 19 20 21 22 23 24 25 26 27 28 29 30 31 32 33 34 35 36 37 38 39 40 41 42 43 44 45 46 47 48 49 50
000
ASUS43 KMPX 112201
RWRMN
WEATHER ROUNDUP FOR MINNESOTA
NATIONAL WEATHER SERVICE TWIN CITIES/CHANHASSEN MN
400 PM CST MON DEC 11 2017


NOTE: "FAIR" INDICATES FEW OR NO CLOUDS BELOW 12,000 FEET WITH NO
SIGNIFICANT WEATHER AND/OR OBSTRUCTIONS TO VISIBILITY. N/A MEANS
CURRENT SKY AND/OR WEATHER CONDITIONS ARE NOT AVAILABLE.

MNZ060>063-068>070-112300-
   Twin Cities Metro

CITY           SKY/WX    TMP DP  RH WIND       PRES   REMARKS
TWIN CITIES    CLOUDY    31  23  72 N20G29    29.99R WCI  19
ST PAUL        CLOUDY    31  22  69 NW22G31   30.00R WCI  18
CRYSTAL        CLOUDY    30  19  63 N13G24    29.99R WCI  20
BLAINE         CLOUDY    30  23  74 N16G25    29.98R WCI  19
EDEN PRAIRIE   CLOUDY    31  21  66 N18G31    29.98R WCI  19
SOUTH ST PAUL  CLOUDY    32  24  71 NW14G30   29.97R WCI  22
LAKE ELMO      CLOUDY    32  27  80 NW18      29.97R WCI  20
$$
MNZ001>005-007-008-013>017-022>024-027-028-112300-
   Northwest Minnesota

CITY           SKY/WX    TMP DP  RH WIND       PRES   REMARKS
BEMIDJI        PTCLDY    17  10  75 NW14      30.12R WCI   3
HALLOCK        MOCLDY    12   7  79 N15       30.29R WCI  -4
ROSEAU         CLEAR     12   7  79 NW13      30.22R WCI  -3
WARROAD        CLEAR     10   5  79 NW15      30.20R WCI  -6
CROOKSTON      MOCLDY    12   9  85 N26       30.27R WCI  -8
FOSSTON        MOCLDY    12   7  79 NW13      30.20R WCI  -3
DETROIT LAKES  FLURRIES  16  12  86 NW18      30.19R WCI  -1
MOORHEAD       PTCLDY    16   9  73 N23G32    30.27R WCI  -2
PARK RAPIDS    MOCLDY    19  12  74 NW17G28   30.09R WCI   4
MAHNOMEN       FAIR      13   8  81 NW20      30.19R WCI  -5
$$
MNZ006-009>011-018-025>026-112300-
   North Central Minnesota

CITY           SKY/WX    TMP DP  RH WIND       PRES   REMARKS
BAUDETTE       FLURRIES  14   8  77 NW15G26   30.14R WCI  -1
FLAG ISLAND    MOCLDY    10   7  85 NW15      30.17R WCI  -6
INTL FALLS     CLOUDY    14   7  73 NW13      30.08R HAZE    WCI   0
WASKISH        PTCLDY    18  10  73 NW10G16   30.13R WCI   6
LONGVILLE      PTCLDY    21  12  68 NW12G17   30.06R WCI   9
GRAND RAPIDS   MOCLDY    18  10  71 N20       30.05R WCI   2
CRANE LAKE     FLURRIES  14   9  79 N12G18    30.05R WCI   0
ORR            CLOUDY    16   7  67 NW10G20   30.00R WCI   3
COOK           FLURRIES  16   9  73 NW8G25    30.02R WCI   5
WALKER         FAIR      19   8  62 NW14G22   30.08R WCI   6
$$
MNZ012-019>021-037-112300-
   Northeast Minnesota

CITY           SKY/WX    TMP DP  RH WIND       PRES   REMARKS
DULUTH         MOCLDY    19  11  70 NW18G29   29.95R WCI   4
ELY            FLURRIES  14   7  73 N15G24    29.96R WCI  -1
HIBBING        PTCLDY    16   8  71 NW21G26   30.00R WCI  -1
DULUTH HARBOR  CLOUDY    25  14  63 NW20G32   30.02R WCI  11
TWO HARBORS    MOCLDY    25  12  58 NW15G23   29.94R WCI  12
GRAND MARAIS     N/A     17   6  62 N9G21     29.92R WCI   6
G MARAIS ARPRT CLOUDY    10   1  67 NW15G30   29.82R HAZE    WCI  -6
$$
MNZ029>031-032-039>041-046>048-054>057-064-112300-
   West Central Minnesota

CITY           SKY/WX    TMP DP  RH WIND       PRES   REMARKS
FERGUS FALLS   MOCLDY    16   9  73 N22G36    30.22R WCI  -2
WHEATON        PTCLDY    21  12  68 NW18G29   30.24R WCI   6
MORRIS         PTCLDY    19  12  73 N29G36    30.16R WCI   1
ALEXANDRIA     CLEAR     20  12  71 NW16G30   30.11R WCI   6
ELBOW LAKE     FAIR      17  11  79 NW25G32   30.17R HAZE    WCI  -2
WADENA         MIX PCPN  19  12  73 NW17      30.10R WCI   4
GLENWOOD       CLEAR     21  16  79 NW23      30.10R WCI   5
APPLETON       MOCLDY    23  16  74 NW18G32   30.18R WCI   9
BENSON         CLOUDY    23  16  74 N24G30    30.15R WCI   7
ORTONVILLE     PTCLDY    21  12  68 N23G39    30.19R WCI   5
MADISON        PTCLDY    27  18  69 N28G33    30.18R WCI  11
WILLMAR        MOCLDY    27  19  74 N25G32    30.10R WCI  11
$$
MNZ033>034-036-042>043-049>051-058-059-112300-
   Central Minnesota

CITY           SKY/WX    TMP DP  RH WIND       PRES   REMARKS
ST CLOUD       MOCLDY    27  18  69 N21G29    30.04R WCI  13
SAUK CENTRE    CLOUDY    23  17  75 NW18G26   30.08R WCI   9
PAYNESVILLE    CLOUDY    26  21  79 NW14G22   30.07R WCI  15
AITKIN         MOCLDY    19  10  68 NW14G20   30.03R WCI   6
PINE RIVER     CLEAR     19  10  68 NW16G25   30.10R WCI   5
BRAINERD       CLEAR     23  12  62 N17G24    30.06R WCI   9
STAPLES        CLOUDY    21  14  73 NW15G21   30.08R WCI   8
LONG PRAIRIE   CLOUDY    25  18  74 W22G28    30.07R WCI  10
LITTLE FALLS   MOCLDY    27  10  50 N9        30.07R WCI  17
LITCHFIELD     CLOUDY    28  21  74 NW23G29   30.06R WCI  14
BUFFALO        MOCLDY    29  19  68 NW18G26   30.04R WCI  16
MAPLE LAKE     CLOUDY    30  23  75 N15G21    30.04R WCI  19
HUTCHINSON     CLOUDY    31  23  71 NW20G29   30.05R WCI  19
$$
MNZ037-044-045-052-053-112300-
   East Central Minnesota

CITY           SKY/WX    TMP DP  RH WIND       PRES   REMARKS
PRINCETON      CLOUDY    27  18  69 NW14      30.03R WCI  15
MORA           MOCLDY    27  19  74 N10G24    30.03R WCI  17
CAMBRIDGE      CLOUDY    28  16  59 N17G25    30.02R WCI  16
RUSH CITY      CLOUDY    26  17  68 N16G22    30.00R WCI  14
MOOSE LAKE     MOCLDY    23  12  63 N13G26    29.99R WCI  11
HINCKLEY       MOCLDY    27  16  63 NW16G26   30.00R WCI  14
CLOQUET        PTCLDY    19   9  63 NW17G28   29.98R WCI   4
MCGREGOR       CLOUDY    23  14  68 NW20      30.02R WCI   8
$$
MNZ071>073-080-081-089-090-097-098-112300-
   Southwest Minnesota

CITY           SKY/WX    TMP DP  RH WIND       PRES   REMARKS
MONTEVIDEO     MOCLDY    23  16  74 N21G29    30.15R WCI   8
CANBY          CLOUDY    27  20  73 NW15G31   30.18R WCI  16
MARSHALL       CLOUDY    25  18  74 N29G35    30.13R WCI   8
REDWOOD FALLS  CLOUDY    27  18  69 NW18G35   30.09R WCI  14
OLIVIA         MOCLDY    30  25  80 NW21G28   30.08R WCI  17
PIPESTONE      CLOUDY    27  21  80 N13G22    30.12R WCI  16
WINDOM           N/A     27  14  59 NW35G46   30.06R WCI   9
WORTHINGTON    CLOUDY    26  20  77 NW33      30.09R WCI   9
JACKSON        CLOUDY    28  23  80 MISG      30.06R
TRACY          CLOUDY    26  21  82 NW24G33   30.11R WCI  11
$$
MNZ065>067-074>077-082>085-091>093-112300-
   South Central Minnesota

CITY           SKY/WX    TMP DP  RH WIND       PRES   REMARKS
MANKATO        CLOUDY    33  24  69 N21G33    30.00R WCI  21
NEW ULM        CLOUDY    28  23  80 NW25G32   30.04R WCI  14
ST JAMES       CLOUDY    28  25  86 NW25G32   30.05R WCI  14
FAIRMONT       CLOUDY    30  26  85 NW29G36   30.02R WCI  15
GLENCOE        CLOUDY    32  26  79 NW21      30.02R WCI  20
FARIBAULT      CLOUDY    34  27  75 NW20G28   29.96R WCI  22
OWATONNA       CLOUDY    34  28  80 NW17G25   29.95R WCI  23
WASECA         CLOUDY    32  28  86 N23G33    29.98R WCI  19
$$
MNZ078>079-086>088-094>096-112300-
   Southeast Minnesota

CITY           SKY/WX    TMP DP  RH WIND       PRES   REMARKS
ROCHESTER      CLOUDY    32  29  88 N18       29.89R WCI  20
RED WING       CLOUDY    34  25  69 N12G18    29.93R WCI  25
STANTON        CLOUDY    34  28  77 N22G28    29.94R WCI  22
DODGE CENTER   CLOUDY    30  27  86 NW20      29.91R WCI  18
WINONA         CLOUDY    34  30  86 NW14G22   29.89R WCI  24
PRESTON        CLOUDY    31  28  86 N17G32    29.88R WCI  20
$$
ABBREVIATIONS USED IN REMARKS
   TC - TEMPERATURES IN CELSIUS
  WCI - WIND CHILL INDEX
   HX - HEAT INDEX
  VSB - VISIBILITY
$$




USA.gov is the U.S. government's official web portal to all federal, state and local government web resources and services.